This is the latest recevied weather packets stored in our database for station/object KB9HGI-1. If no packets are shown the sender has not sent any weather packets the latest 10 day(s).
| Time | Temp. | Humidity | Pressure | Rain* | Wind** | Luminosity | Snow |
|---|---|---|---|---|---|---|---|
| 1777911835 | 23.89° C | 52% | 1000 hPa | 0 mm | - | 886 W/m² | - |
| 1777907599 | 22.22° C | 59% | 1000.7 hPa | 0 mm | - | 735 W/m² | - |
| 1777906398 | 21.67° C | 61% | 1000.3 hPa | 0 mm | - | 679 W/m² | - |
| 1777905135 | 20.56° C | 63% | 1000.7 hPa | 0 mm | - | 555 W/m² | - |
| 1777898527 | 17.22° C | 74% | 1001.4 hPa | 0 mm | - | 97 W/m² | - |
| 1777894260 | 18.33° C | 68% | 1000.3 hPa | 0 mm | - | 40 W/m² | - |
| 1777893028 | 15° C | 85% | 1000.7 hPa | 0 mm | - | 21 W/m² | - |
| 1777886959 | 14.44° C | 86% | 1003 hPa | 0 mm | - | 0 W/m² | - |
| 1777886359 | 13.89° C | 88% | 1003 hPa | 0 mm | - | 0 W/m² | - |
| 1777883925 | 13.89° C | 90% | 1002.7 hPa | 0.25 mm | - | 0 W/m² | - |
| 1777882123 | 13.89° C | 89% | 1003.7 hPa | 0.51 mm | - | 0 W/m² | - |
| 1777881522 | 14.44° C | 89% | 1003.7 hPa | 0.51 mm | - | 0 W/m² | - |
| 1777880922 | 14.44° C | 88% | 1004.1 hPa | 0.25 mm | - | 0 W/m² | - |
| 1777880321 | 14.44° C | 88% | 1004.1 hPa | 0.25 mm | - | 0 W/m² | - |
| 1777879690 | 14.44° C | 88% | 1004.1 hPa | 0.25 mm | - | 0 W/m² | - |
| 1777879089 | 14.44° C | 88% | 1003.4 hPa | 0.25 mm | - | 0 W/m² | - |
| 1777876624 | 14.44° C | 87% | 1004.1 hPa | 0.25 mm | - | 0 W/m² | - |
| 1777863855 | 17.22° C | 66% | 1005.4 hPa | 0 mm | - | 0 W/m² | - |
| 1777860851 | 18.33° C | 62% | 1005.4 hPa | 0 mm | - | 0 W/m² | - |
| 1777847006 | 22.78° C | 50% | 1006.1 hPa | 0 mm | - | 153 W/m² | - |
| 1777834331 | 21.67° C | 49% | 1007.8 hPa | 0 mm | - | 489 W/m² | - |
| 1777831897 | 20° C | 50% | 1007.8 hPa | 0 mm | - | 434 W/m² | - |
| 1777830096 | 18.89° C | 50% | 1008.8 hPa | 0 mm | - | 439 W/m² | - |
| 1777828894 | 18.33° C | 52% | 1009.1 hPa | 0 mm | - | 279 W/m² | - |
| 1777825891 | 17.22° C | 52% | 1009.5 hPa | 0 mm | - | 322 W/m² | - |
* Rain latest hour (hover to see other rain measurements)
** Current wind speed in m/s (hover to see current wind gust speed)